GPS BIIR-16M

Last updated on Tue Sep 16 2025 00:02:34 GMT+0000 (Coordinated Universal Time)

1 29601U 06052A 25258.20228423 .00000031 00000+0 00000+0 0 9998 2 29601 54.9954 224.9083 0085109 86.9467 274.0093 2.00568147137893
UTC large
Height (km)
Speed (km/s)
/
Latitude / Longitude
Inclination (degrees)
Orbital Period (minutes)
Azimuth
Elevation
Range (km)
Doppler Factor

Next 0 passes for location: London (51.5072 / 0.1276)

Sorry there are no passes over London.